Regional Weather Roundup
Issued by NWS Little Rock, AR

Home | Current Version | Previous Version | Graphics & Text | Print | Product List | Glossary On
Versions: 1 2 3 4 5 6 7 8 9 10 11 12 13 14 15 16 17 18 19 20 21 22 23 24 25 26 27 28 29 30 31 32 33 34 35 36 37 38 39 40 41 42 43 44 45 46 47 48 49 50
000
ASUS44 KLZK 212005
RWRLZK

WEATHER ROUNDUP FOR ARKANSAS
NATIONAL WEATHER SERVICE LITTLE ROCK AR
300 PM CDT MON JUL 21 2014

NOTE: "FAIR" INDICATES FEW OR NO CLOUDS BELOW 12,000 FEET WITH NO
SIGNIFICANT WEATHER AND/OR OBSTRUCTIONS TO VISIBILITY.

ARZ001-003-010-029-212100-
NORTHWEST ARKANSAS

CITY           SKY/WX    TMP DP  RH WIND       PRES   REMARKS
FAYETTEVILLE   MOSUNNY   85  69  58 CALM      30.09F HX  89
FORT SMITH     SUNNY     88  70  55 E5        30.05F HX  93
HARRISON       SUNNY     86  66  51 CALM      30.10F HX  88
BENTONVILLE    MOSUNNY   86  70  58 W5        30.10F HX  90
ROGERS         PTSUNNY   87  68  52 SW7       30.09F HX  90
SILOAM SPGS    MOSUNNY   88  70  55 CALM      30.08F HX  92
HIGHFILL       MOSUNNY   88  72  58 VRB6      30.08F HX  94
SPRINGDALE     MOSUNNY   86  70  58 S5        30.11F HX  90
$$

ARZ004-005-016-212100-
NORTH CENTRAL ARKANSAS

CITY           SKY/WX    TMP DP  RH WIND       PRES   REMARKS
BATESVILLE     MOSUNNY   84  66  54 S5        30.07F HX  86
FLIPPIN        SUNNY     84  63  48 SE3       30.09F HX  85
MTN HOME       MOSUNNY   83  66  56 SE7       30.08F HX  85
$$

ARZ040-041-212100-
WEST CENTRAL ARKANSAS

CITY           SKY/WX    TMP DP  RH WIND       PRES   REMARKS
MENA           MOSUNNY   88  70  55 CALM      30.09F HX  92
MOUNT IDA      PTSUNNY   82  67  60 CALM      30.07F
$$

ARZ009-017-025-026-028-212100-
NORTHEAST ARKANSAS

CITY           SKY/WX    TMP DP  RH WIND       PRES   REMARKS
CORNING        LGT RAIN  82  64  54 SE5       30.08F
JONESBORO      SUNNY     84  63  49 CALM      30.06F HX  85
NEWPORT        MOSUNNY   85  65  51 NE3       30.08F HX  86
WALNUT RIDGE   SUNNY     82  63  51 E7        30.06F
BLYTHEVILLE    PTSUNNY   83  66  56 VRB6      30.07F HX  85
NW BLYTHEVILLE MOSUNNY   86  66  51 NW5       30.07F HX  88
$$

ARZ022-023-033-042-044-212100-
CENTRAL ARKANSAS

CITY           SKY/WX    TMP DP  RH WIND       PRES   REMARKS
LITTLE ROCK    MOSUNNY   86  63  45 CALM      30.06F HX  87
N LITTLE ROCK  MOSUNNY   83  69  63 N3        30.06F HX  86
JACKSONVILLE   MOSUNNY   85  67  55 E3        30.06F HX  87
SEARCY         SUNNY     88  67  49 W3        30.06F HX  91
HOT SPRINGS    MOSUNNY   85  66  53 VRB3      30.08F HX  87
RUSSELLVILLE   MOSUNNY   84  67  56 VRB5      30.07F HX  86
CLINTON        FAIR      84  70  61 W3        30.08F HX  88
$$

ARZ036-212100-
EAST ARKANSAS

CITY           SKY/WX    TMP DP  RH WIND       PRES   REMARKS
WEST MEMPHIS   MOSUNNY   85  67  54 NW5       30.05F HX  87
$$

ARZ050-053-066-070-073-212100-
SOUTHWEST ARKANSAS

CITY           SKY/WX    TMP DP  RH WIND       PRES   REMARKS
ARKADELPHIA    FAIR      85  68  56 CALM      30.07F HX  88
CAMDEN         PTSUNNY   86  66  51 NW3       30.05F HX  88
TEXARKANA      PTSUNNY   84  69  60 VRB3      30.07F HX  88
EL DORADO      SUNNY     87  66  49 CALM      30.06F HX  89
DE QUEEN       PTSUNNY   85  71  63 SE3       30.04F HX  90
$$

ARZ056-057-069-212100-
SOUTHEAST ARKANSAS

CITY           SKY/WX    TMP DP  RH WIND       PRES   REMARKS
PINE BLUFF     MOSUNNY   85  67  54 NE6       30.06F HX  87
STUTTGART      MOSUNNY   84  66  54 W3        30.07F HX  86
MONTICELLO     MOSUNNY   87  66  49 VRB7      30.05F HX  89

$$





USA.gov is the U.S. government's official web portal to all federal, state and local government web resources and services.